Location: Frankfurt+am+Main
(50.1100°N, 8.4815°E)
Time: 04:31:19
(UTC+01:00)

ISS - Pass Details

Date: 06 January 2018
Orbit: 401 x 406 km, 51.6° (Epoch: 17 January)

Event Time Altitude Azimuth Distance (km) Brightness Sun altitude
Exits shadow 06:48:22 32° 291° (WNW) 731 -3.1 -14.5°
Maximum altitude 06:49:43 66° 5° (N) 448 -3.7 -14.3°
Drops below altitude 10° 06:53:00 10° 88° (E) 1,468 0.2 -13.8°
Sets 06:55:06 0° 91° (E) 2,329 1.6 -13.5°
